GW0500 Weather Reports


time (UTC)temp
C
wind
direction
speed
KPH
gust
KPH
rain 1hr
cm
rain 24hr
cm
rain mn
cm
humidity
%
barometer
mb
20260505204559 7 202 3.2 9.7 0.00 0.33 0.25 94 1016.6
20260505204044 6 84 1.6 11.3 0.00 0.33 0.25 94 1016.5
20260505203547 6 116 1.6 11.3 0.00 0.33 0.25 94 1016.5
20260505203056 7 99 3.2 11.3 0.00 0.33 0.25 95 1016.4
20260505202545 6 138 3.2 16.1 0.00 0.33 0.25 95 1016.5
20260505202045 6 131 1.6 16.1 0.00 0.33 0.25 95 1016.5
20260505201555 6 87 1.6 9.7 0.00 0.33 0.25 95 1016.6
20260505201044 6 199 3.2 9.7 0.00 0.33 0.25 95 1016.6
20260505200547 6 68 3.2 11.3 0.00 0.33 0.25 95 1016.7
20260505195545 6 78 1.6 12.9 0.00 0.33 0.25 95 1016.7
20260505195049 6 211 1.6 12.9 0.03 0.33 0.25 95 1016.6
20260505194557 5 0 0.0 12.9 0.03 0.33 0.25 95 1016.6
20260505194045 5 64 1.6 12.9 0.03 0.33 0.25 95 1016.7
20260505193546 5 0 1.6 11.3 0.03 0.33 0.25 95 1016.7
20260505193053 5 5 3.2 11.3 0.03 0.33 0.25 95 1016.9
20260505192543 5 148 3.2 8.0 0.03 0.33 0.25 95 1016.9
20260505192043 5 218 0.0 6.4 0.03 0.33 0.25 95 1016.8
20260505191551 5 61 1.6 9.7 0.03 0.33 0.25 95 1017.0
20260505191048 5 33 1.6 9.7 0.03 0.33 0.25 95 1016.9
20260505190545 5 171 1.6 9.7 0.03 0.33 0.25 95 1016.8
20260505190050 5 200 0.0 8.0 0.03 0.33 0.25 95 1016.8
20260505185547 5 150 3.2 17.7 0.03 0.33 0.25 95 1016.7
20260505185045 5 170 1.6 17.7 0.00 0.30 0.23 95 1016.7
20260505184552 5 141 3.2 11.3 0.00 0.30 0.23 95 1016.6
20260505184044 5 134 1.6 11.3 0.00 0.30 0.23 95 1016.7
20260505183548 5 36 1.6 16.1 0.00 0.30 0.23 95 1016.7
20260505183054 5 0 3.2 16.1 0.00 0.30 0.23 95 1016.5
20260505182547 5 63 0.0 9.7 0.00 0.30 0.23 95 1016.5
20260505182046 5 139 0.0 12.9 0.00 0.30 0.23 95 1016.5
20260505181550 5 84 4.8 12.9 0.00 0.30 0.23 95 1016.5
20260505181045 5 155 1.6 4.8 0.00 0.30 0.23 96 1016.5
20260505180550 5 240 1.6 9.7 0.00 0.30 0.23 95 1016.4
20260505180105 5 281 1.6 9.7 0.00 0.30 0.23 95 1016.4
20260505175547 5 54 1.6 8.0 0.00 0.30 0.23 95 1016.4
20260505175048 5 0 1.6 19.3 0.00 0.30 0.23 95 1016.2
20260505174603 5 140 4.8 19.3 0.00 0.30 0.23 95 1016.3
20260505174044 5 104 3.2 19.3 0.00 0.30 0.23 95 1016.2
20260505173544 5 74 3.2 12.9 0.00 0.30 0.23 95 1016.1
20260505173052 5 139 1.6 12.9 0.03 0.30 0.23 95 1016.1
20260505172546 5 163 3.2 8.0 0.03 0.30 0.23 95 1016.0
20260505172044 5 352 0.0 16.1 0.03 0.30 0.23 95 1015.8
20260505171551 5 184 4.8 16.1 0.03 0.30 0.23 95 1015.8
20260505171048 5 132 1.6 6.4 0.03 0.30 0.23 95 1015.7
20260505170550 5 38 0.0 4.8 0.03 0.30 0.23 95 1015.6
20260505170057 5 360 1.6 8.0 0.03 0.30 0.23 95 1015.6
20260505165544 5 0 1.6 11.3 0.03 0.33 0.23 95 1015.4
20260505165046 5 192 1.6 11.3 0.03 0.33 0.23 95 1015.3
20260505164552 5 0 0.0 9.7 0.03 0.33 0.23 95 1015.3
20260505164046 5 263 1.6 9.7 0.03 0.33 0.23 95 1015.3
20260505163546 5 0 0.0 16.1 0.03 0.33 0.23 95 1015.3
20260505163054 5 337 0.0 19.3 0.00 0.30 0.20 95 1015.3
20260505162545 5 158 3.2 19.3 0.00 0.30 0.20 95 1015.2
20260505162044 5 344 1.6 8.0 0.00 0.30 0.20 95 1015.1
20260505161605 5 214 1.6 12.9 0.00 0.30 0.20 95 1015.1
20260505161047 5 171 1.6 12.9 0.00 0.30 0.20 95 1015.2
20260505160545 5 207 1.6 9.7 0.00 0.30 0.20 95 1015.1
20260505153054 5 297 1.6 12.9 0.03 0.30 0.20 95 1014.7
20260505152544 5 71 1.6 8.0 0.03 0.30 0.20 95 1014.8
20260505152049 5 241 1.6 8.0 0.03 0.30 0.20 95 1014.7
20260505151551 5 126 3.2 11.3 0.03 0.30 0.20 95 1014.7
20260505151044 5 159 1.6 11.3 0.03 0.30 0.20 95 1014.6
20260505150546 5 219 1.6 12.9 0.03 0.30 0.20 95 1014.6
20260505140547 5 0 0.0 4.8 0.03 0.28 0.18 95 1014.2
20260505140104 5 95 1.6 8.0 0.03 0.28 0.18 95 1014.2
20260505124552 6 53 3.2 8.0 0.03 0.28 0.15 95 1014.2
20260505124047 6 0 1.6 9.7 0.03 0.28 0.15 95 1014.1
20260505123545 5 121 1.6 9.7 0.03 0.28 0.15 95 1014.0
20260505123100 5 90 0.0 6.4 0.03 0.28 0.15 95 1013.8
20260505122545 5 0 0.0 4.8 0.03 0.28 0.15 95 1013.7
20260505122046 5 147 0.0 4.8 0.03 0.28 0.15 95 1013.8
20260505121557 5 199 0.0 4.8 0.00 0.25 0.13 95 1013.8
20260505121046 6 111 1.6 9.7 0.00 0.25 0.13 95 1013.8
20260505120546 6 0 1.6 9.7 0.03 0.25 0.13 95 1013.9
20260505120051 6 334 1.6 8.0 0.03 0.25 0.13 95 1014.0
20260505115544 6 40 1.6 6.4 0.03 0.25 0.13 95 1013.9
20260505115045 6 0 0.0 6.4 0.03 0.25 0.13 95 1013.9
20260505114554 6 0 0.0 3.2 0.03 0.25 0.13 95 1013.8
20260505114048 6 135 0.0 3.2 0.03 0.25 0.13 95 1013.9
20260505113547 6 328 0.0 8.0 0.03 0.25 0.13 95 1013.8
20260505113108 6 87 0.0 8.0 0.03 0.25 0.13 95 1013.9
20260505112547 5 67 3.2 8.0 0.03 0.25 0.13 95 1013.9
20260505112046 5 103 0.0 4.8 0.03 0.25 0.13 95 1014.1
20260505111552 5 0 0.0 3.2 0.03 0.25 0.13 95 1014.0
20260505111046 5 0 0.0 9.7 0.03 0.25 0.13 95 1014.0
20260505110546 5 0 0.0 9.7 0.00 0.23 0.10 95 1013.9
20260505102044 5 0 0.0 4.8 0.03 0.25 0.10 95 1013.9
20260505101555 5 0 0.0 3.2 0.03 0.25 0.10 95 1013.9
20260505101046 5 34 0.0 3.2 0.03 0.25 0.10 95 1013.9
20260505100548 5 0 0.0 4.8 0.03 0.25 0.10 95 1014.1
20260505100055 5 0 0.0 4.8 0.00 0.23 0.08 95 1014.1
20260505095543 5 32 1.6 4.8 0.00 0.25 0.08 95 1014.2
20260505095046 5 67 1.6 4.8 0.00 0.25 0.08 94 1014.2
20260505094557 5 0 0.0 6.4 0.03 0.25 0.08 94 1014.2
20260505094047 5 127 0.0 8.0 0.03 0.25 0.08 94 1014.2
20260505093547 5 124 3.2 8.0 0.03 0.25 0.08 94 1014.4
20260505093054 5 82 0.0 11.3 0.03 0.25 0.08 94 1014.4
20260505092546 5 105 1.6 11.3 0.03 0.25 0.08 94 1014.4
20260505092047 5 147 1.6 6.4 0.03 0.25 0.08 94 1014.5
20260505091608 5 30 0.0 6.4 0.03 0.25 0.08 94 1014.4
20260505091045 5 106 0.0 4.8 0.03 0.25 0.08 95 1014.5
20260505090546 5 61 0.0 4.8 0.03 0.25 0.08 94 1014.5
20260505090054 5 0 0.0 4.8 0.03 0.25 0.08 95 1014.5
20260505085550 5 0 0.0 4.8 0.03 0.25 0.08 95 1014.5
20260505085046 5 0 0.0 4.8 0.05 0.25 0.08 95 1014.6
20260505084553 5 0 0.0 4.8 0.03 0.23 0.05 95 1014.7
20260505084045 5 0 0.0 3.2 0.03 0.23 0.05 95 1014.6
20260505083545 5 0 0.0 4.8 0.03 0.23 0.05 94 1014.6
20260505083049 5 0 0.0 4.8 0.03 0.23 0.05 94 1014.9
20260505082549 5 311 1.6 6.4 0.03 0.23 0.05 94 1015.0
20260505082047 5 280 0.0 6.4 0.03 0.23 0.05 94 1015.1
20260505081600 5 0 1.6 9.7 0.03 0.23 0.05 94 1015.1
20260505081047 5 0 1.6 9.7 0.03 0.23 0.05 94 1015.2
20260505080546 5 240 0.0 6.4 0.03 0.23 0.05 94 1015.3
20260505080108 5 0 0.0 6.4 0.05 0.23 0.05 94 1015.3
20260505075549 5 98 1.6 6.4 0.05 0.23 0.05 94 1015.4
20260505075046 5 0 0.0 4.8 0.03 0.20 0.03 94 1015.3
20260505074602 5 85 0.0 6.4 0.03 0.20 0.03 94 1015.3
20260505074044 5 0 3.2 6.4 0.03 0.20 0.03 94 1015.3
20260505073545 5 121 1.6 6.4 0.03 0.20 0.03 94 1015.3
20260505073051 5 0 1.6 6.4 0.03 0.20 0.03 94 1015.3
20260505072548 5 0 0.0 9.7 0.03 0.20 0.03 94 1015.3
20260505072048 5 123 1.6 9.7 0.03 0.20 0.03 94 1015.3
20260505071557 5 297 1.6 9.7 0.05 0.20 0.03 94 1015.4
20260505071045 5 101 1.6 9.7 0.05 0.20 0.03 94 1015.4
20260505070547 5 51 3.2 8.0 0.05 0.20 0.03 94 1015.4
20260505070056 5 144 1.6 12.9 0.03 0.18 0.00 94 1015.4
20260505065546 5 94 1.6 12.9 0.03 0.18 0.18 94 1015.4
20260505065044 5 136 1.6 12.9 0.03 0.18 0.18 94 1015.6
20260505064551 5 172 1.6 8.0 0.03 0.18 0.18 94 1015.6
20260505064048 5 67 0.0 8.0 0.03 0.18 0.18 94 1015.6
20260505063732 5 301 1.6 8.0 0.03 0.18 0.18 94 1015.6
20260505063119 5 71 1.6 8.0 0.03 0.18 0.18 94 1015.6
20260505062546 5 50 1.6 6.4 0.03 0.18 0.18 94 1015.6
20260505062045 5 170 1.6 11.3 0.03 0.18 0.18 94 1015.6
20260505061623 5 44 1.6 11.3 0.00 0.15 0.15 93 1015.6
20260505061045 5 60 0.0 8.0 0.03 0.15 0.15 94 1015.8
20260505060548 5 182 1.6 8.0 0.03 0.15 0.15 94 1015.8
20260505055546 5 163 1.6 11.3 0.03 0.15 0.15 94 1015.8
20260505055046 5 56 1.6 12.9 0.03 0.15 0.15 93 1015.8
20260505054606 5 238 1.6 12.9 0.03 0.15 0.15 94 1016.0
20260505054048 5 153 3.2 12.9 0.03 0.15 0.15 93 1016.0
20260505053545 5 137 1.6 6.4 0.03 0.15 0.15 93 1016.1
20260505053051 5 0 1.6 8.0 0.03 0.15 0.15 93 1015.9
20260505052548 5 139 1.6 8.0 0.03 0.15 0.15 93 1016.0
20260505052048 5 116 1.6 11.3 0.03 0.15 0.15 93 1016.0
20260505051610 5 0 1.6 11.3 0.03 0.15 0.15 93 1016.1
20260505051048 5 46 3.2 29.0 0.03 0.13 0.13 93 1016.2
20260505050547 5 138 1.6 29.0 0.03 0.13 0.13 93 1016.2
20260505041559 5 90 3.2 4.8 0.03 0.13 0.13 92 1016.2
20260505041045 6 321 1.6 12.9 0.00 0.10 0.10 93 1016.2
20260505040545 6 95 1.6 12.9 0.00 0.10 0.10 93 1016.2
20260505040100 6 296 1.6 9.7 0.00 0.10 0.10 92 1016.1
20260505035546 6 90 1.6 6.4 0.00 0.10 0.10 92 1016.0
20260505035044 6 286 1.6 6.4 0.00 0.10 0.10 91 1015.9
20260505034553 6 0 1.6 8.0 0.00 0.10 0.10 91 1016.1
20260505034045 6 126 1.6 8.0 0.00 0.10 0.10 92 1016.1
20260505033545 6 0 1.6 8.0 0.00 0.10 0.10 92 1015.9
20260505033058 6 211 1.6 11.3 0.00 0.10 0.10 92 1015.9
20260505032545 6 44 1.6 11.3 0.00 0.10 0.10 92 1015.8
20260505032046 6 0 3.2 17.7 0.00 0.10 0.10 92 1015.8
20260505031558 6 117 4.8 17.7 0.00 0.10 0.10 92 1016.0
20260505031047 6 32 1.6 11.3 0.00 0.10 0.10 92 1015.7
20260505030545 6 152 4.8 11.3 0.00 0.10 0.10 91 1015.8
20260505030057 6 140 3.2 8.0 0.00 0.10 0.10 91 1015.6
20260505025545 6 122 1.6 6.4 0.00 0.10 0.10 91 1015.5
20260505025045 6 98 1.6 17.7 0.00 0.10 0.10 91 1015.6
20260505024556 6 0 3.2 17.7 0.00 0.10 0.10 91 1015.4
20260505024046 6 115 1.6 8.0 0.00 0.10 0.10 90 1015.4
20260505023544 6 163 1.6 17.7 0.00 0.10 0.10 90 1015.4
20260505023051 6 46 3.2 17.7 0.00 0.10 0.10 89 1015.4
20260505022545 6 105 1.6 11.3 0.00 0.10 0.10 89 1015.5
20260505022045 7 130 1.6 8.0 0.00 0.10 0.10 89 1015.6
20260505021557 7 85 1.6 9.7 0.00 0.10 0.10 88 1015.4
20260505021044 7 127 0.0 9.7 0.00 0.10 0.10 88 1015.4
20260505020545 7 76 1.6 9.7 0.00 0.10 0.10 87 1015.4
20260505015546 7 31 1.6 16.1 0.00 0.10 0.10 86 1015.5
20260505015049 7 230 3.2 16.1 0.00 0.10 0.10 86 1015.6
20260505014557 7 0 4.8 16.1 0.00 0.10 0.10 86 1015.6
20260505014047 7 104 1.6 14.5 0.00 0.10 0.10 86 1015.9
20260505013547 7 0 3.2 14.5 0.00 0.10 0.10 85 1015.9
20260505013057 7 181 3.2 11.3 0.00 0.10 0.10 85 1015.9
20260505012548 7 127 3.2 29.0 0.00 0.10 0.10 84 1015.8
20260505012045 7 216 4.8 29.0 0.00 0.10 0.10 84 1015.7
20260505011557 7 337 4.8 14.5 0.00 0.10 0.10 83 1015.9
20260505011045 8 251 4.8 12.9 0.00 0.10 0.10 83 1015.9
20260505010546 8 140 4.8 11.3 0.00 0.10 0.10 82 1016.0
20260505010112 8 123 3.2 12.9 0.00 0.10 0.10 82 1015.9
20260505005545 8 0 1.6 12.9 0.00 0.10 0.10 82 1016.1
20260505005045 8 132 1.6 14.5 0.00 0.10 0.10 82 1016.1
20260505004559 8 105 3.2 20.9 0.00 0.10 0.10 82 1015.9
20260505004048 8 59 4.8 20.9 0.00 0.10 0.10 81 1015.9
20260505003547 8 228 3.2 9.7 0.00 0.10 0.10 81 1016.0
20260505003058 8 70 1.6 6.4 0.00 0.10 0.10 81 1015.9
20260505002547 8 144 1.6 8.0 0.00 0.10 0.10 80 1016.0
20260505002044 8 136 3.2 17.7 0.00 0.10 0.10 80 1015.9
20260505001600 8 106 3.2 17.7 0.00 0.10 0.10 80 1016.0
20260505001050 8 30 4.8 14.5 0.00 0.10 0.10 78 1015.9
20260505000551 9 140 0.0 9.7 0.00 0.10 0.10 79 1016.1
20260505000057 9 72 3.2 16.1 0.00 0.10 0.10 79 1015.9
20260504235548 9 343 3.2 16.1 0.00 0.10 0.10 78 1015.9
20260504235048 9 306 3.2 12.9 0.00 0.10 0.10 78 1016.0
20260504234550 9 155 3.2 14.5 0.00 0.10 0.10 76 1016.0
20260504234048 9 204 1.6 14.5 0.00 0.10 0.10 76 1015.9
20260504233548 10 0 1.6 12.9 0.00 0.10 0.10 75 1015.9
20260504233107 10 98 3.2 12.9 0.00 0.10 0.10 75 1016.0
20260504232545 10 157 3.2 11.3 0.00 0.10 0.10 75 1015.9
20260504232047 10 261 3.2 12.9 0.00 0.10 0.10 74 1015.9
20260504231552 10 89 4.8 16.1 0.00 0.10 0.10 74 1016.0
20260504231044 10 140 4.8 16.1 0.00 0.10 0.10 74 1016.1
20260504230545 10 195 1.6 24.1 0.00 0.10 0.10 75 1015.9
20260504230059 10 161 4.8 24.1 0.00 0.10 0.10 74 1016.0
20260504225549 10 150 1.6 8.0 0.00 0.10 0.10 74 1016.0
20260504225048 10 119 3.2 9.7 0.00 0.10 0.10 74 1016.1
20260504224552 10 67 1.6 11.3 0.00 0.10 0.10 74 1015.9
20260504224048 10 121 1.6 16.1 0.00 0.10 0.10 73 1015.9
20260504223549 10 262 3.2 16.1 0.00 0.10 0.10 73 1016.1
20260504223055 10 94 3.2 11.3 0.00 0.10 0.10 73 1015.9
20260504222548 10 46 3.2 14.5 0.00 0.10 0.10 73 1016.1
20260504222048 10 175 3.2 14.5 0.00 0.10 0.10 74 1016.4
20260504221550 10 216 3.2 20.9 0.00 0.10 0.10 73 1016.1
20260504221049 10 137 3.2 20.9 0.00 0.10 0.10 75 1016.2
20260504220548 10 126 4.8 14.5 0.00 0.10 0.10 72 1016.5
20260504220054 11 158 4.8 22.5 0.00 0.10 0.10 73 1016.4
20260504215547 11 82 6.4 22.5 0.00 0.10 0.10 72 1016.5
20260504215048 10 164 3.2 11.3 0.00 0.10 0.10 73 1016.5
20260504214556 10 294 3.2 19.3 0.00 0.10 0.10 75 1016.7
20260504214049 10 150 4.8 19.3 0.00 0.10 0.10 76 1016.6
20260504213547 10 0 3.2 8.0 0.00 0.10 0.10 75 1016.7
20260504213052 10 80 1.6 12.9 0.00 0.10 0.10 77 1016.7
20260504212544 10 46 1.6 14.5 0.00 0.10 0.10 78 1016.8
20260504212048 10 175 3.2 14.5 0.00 0.10 0.10 76 1016.8
20260504211551 10 78 4.8 14.5 0.00 0.10 0.10 76 1017.1
20260504211050 10 187 4.8 14.5 0.00 0.10 0.10 74 1017.1
20260504210549 10 80 3.2 14.5 0.00 0.10 0.10 74 1016.9
20260504210105 10 127 1.6 11.3 0.00 0.10 0.10 77 1017.1
20260504205547 10 301 1.6 14.5 0.00 0.10 0.10 78 1017.0
20260504205047 10 13 3.2 24.1 0.00 0.10 0.10 76 1017.0